DELTA 1 DEB, 7203

Orbit data source: Space-Track

DELTA 1 DEB, 7203 is space debris in SSO originally from a launch on Tue, 06 Nov 1973 UTC launched from the Air Force Western Test Range (AFWTR). Debris objects in space refer to the collection of defunct objects orbiting the Earth. Examples of debris include non-operational satellites, rocket bodies, and fragments generated from explosions, collisions, or faulty payload assembly.

Loading next visibility...
Identifier
7203, 1973-086FM
Orbit
SSO
Country
Flag of USUS
Related business
Manufacturer
Unknown
Mission
Spacecraft
Bus & Motor
Unknown
Mass
Unknown
Launch date (UTC)
1973-11-06 (52 years ago)
Launch vehicle
Unknown
Launch site
Air Force Western Test Range (AFWTR)
Object type
Payload
Rocket body
Debris
Shape & HBR
Unknown shape, 0.1 m
Radar Cross Section
Small (<0.1 m²)

Expand to show TLE details & history
Last TLE update: 13 hours ago

TLE from 13 hours ago
0 DELTA 1 DEB
1 07203U 73086FM  25292.24292984  .00000855  00000-0  92787-3 0  9990
2 07203 102.0149 273.7171 0444993  36.7962 326.2848 13.40623481528241
Epoch: 2025-10-19T05:49Z
TLE epoch observation values (Epoch: 2025-10-19T05:49:49.138Z)
Latitude
-0.00001°
Longitude
158.29996°
Altitude
837.368 km
Speed
7.568 km/s
True Right ascension
18h 14m 52s
True Declination
0° 00' 00"
Sunlit
Object was in daylight at epoch
Visualization orbit readout
Latitude
Unknown
Longitude
Unknown
Altitude
Unknown
Speed
Unknown
Apparent Right ascension
Unknown
Apparent Declination
Unknown
Sunlit
N/A
Visualization observer readout
Local Sidereal Time
13:42:47
Azimuth
Unknown
Elevation
Unknown
Doppler factor
Unknown
Orbital elements
Apogee altitude
1,437.363 km
Perigee altitude
771.428 km
Semi-major axis
7,482.533 km
Eccentricity
0.0445
Inclination
102.0149°
RAAN
273.7171°
Arg. of periapsis
36.7962°
True anomaly
323.31869°
Mean anomaly
326.2848°
Eccentric anomaly
324.81569°
Mean motion
3.35328 °/min
Orbital period
107.36 mins
BSTAR
0.00092787
Loading maneuver chart data...
Computing Atmospheric mass density...
Loading historical data...
Loading historical data...
Loading historical data...
Loading historical data...
Loading historical data...
Loading historical data...
Loading historical data...

Documentation

Showing up to 5 results
|